• In Uzbekistan
  • List of Countries
  • For 7 days
  • Water Temperature
  • Satellite Maps
  • Weather Map
  • Weather Widgets
  • user-avatar
    Login

    Hourly Weather Salzburg

    Today, 27 July, Thursday

    Time Temperature Precipitation Wind Pressure Humidity
    00:00 +5°C° 1.1 mm 2 mps 623 mmHg 96%
    01:00 +5°C° 0 mm 2 mps 623 mmHg 96%
    02:00 +5°C° 0.8 mm 2 mps 623 mmHg 96%
    03:00 +5°C° 0.8 mm 2 mps 623 mmHg 96%
    04:00 +5°C° 0.8 mm 2 mps 623 mmHg 95%
    05:00 +6°C° 0.1 mm 2 mps 624 mmHg 93%
    06:00 +7°C° 0.1 mm 2 mps 624 mmHg 91%
    07:00 +8°C° 0 mm 3 mps 624 mmHg 89%
    08:00 +10°C° 0.1 mm 3 mps 625 mmHg 77%
    09:00 +13°C° 0.1 mm 2 mps 626 mmHg 65%
    10:00 +15°C° 0.1 mm 2 mps 626 mmHg 53%
    11:00 +15°C° 0 mm 2 mps 626 mmHg 54%
    12:00 +15°C° 0 mm 2 mps 626 mmHg 55%
    13:00 +15°C° 0 mm 2 mps 626 mmHg 56%
    14:00 +14°C° 0.5 mm 2 mps 626 mmHg 66%
    15:00 +13°C° 0.5 mm 2 mps 625 mmHg 75%
    16:00 +10°C° 0.5 mm 2 mps 625 mmHg 84%
    17:00 +10°C° 0.7 mm 2 mps 625 mmHg 87%
    18:00 +11°C° 0.7 mm 1 mps 624 mmHg 89%
    19:00 +10°C° 0.7 mm 1 mps 624 mmHg 91%
    20:00 +10°C° 0.2 mm 1 mps 624 mmHg 93%
    21:00 +9°C° 0.2 mm 1 mps 625 mmHg 93%
    22:00 +9°C° 0.2 mm 1 mps 625 mmHg 94%
    23:00 +9°C° 0.8 mm 1 mps 625 mmHg 94%

    Tomorrow, 28 July, Friday

    Time Temperature Precipitation Wind Pressure Humidity
    00:00 +9°C° 0.8 mm 1 mps 625 mmHg 94%
    01:00 +9°C° 0.8 mm 1 mps 625 mmHg 95%
    02:00 +9°C° 0.2 mm 1 mps 625 mmHg 95%
    03:00 +9°C° 0.2 mm 1 mps 625 mmHg 95%
    04:00 +7°C° 0.2 mm 2 mps 625 mmHg 95%
    05:00 +9°C° 0.2 mm 1 mps 625 mmHg 94%
    06:00 +10°C° 0.2 mm 1 mps 626 mmHg 92%
    07:00 +11°C° 0.2 mm 1 mps 626 mmHg 91%
    08:00 +13°C° 0.3 mm 1 mps 627 mmHg 85%
    09:00 +14°C° 0.3 mm 1 mps 628 mmHg 80%
    10:00 +16°C° 0.3 mm 1 mps 629 mmHg 74%
    11:00 +16°C° 0.6 mm 2 mps 628 mmHg 75%
    12:00 +16°C° 0.6 mm 2 mps 628 mmHg 75%
    13:00 +16°C° 0.6 mm 2 mps 628 mmHg 75%
    14:00 +16°C° 0.7 mm 2 mps 629 mmHg 77%
    15:00 +16°C° 0.7 mm 2 mps 629 mmHg 80%
    16:00 +16°C° 0.7 mm 2 mps 629 mmHg 82%
    17:00 +15°C° 0.3 mm 2 mps 629 mmHg 85%
    18:00 +14°C° 0.3 mm 1 mps 629 mmHg 89%
    19:00 +13°C° 0.3 mm 1 mps 629 mmHg 92%
    20:00 +12°C° 0 mm 1 mps 629 mmHg 94%
    21:00 +11°C° 0 mm 1 mps 629 mmHg 95%
    22:00 +10°C° 0 mm 1 mps 629 mmHg 96%
    23:00 +10°C° 0 mm 1 mps 629 mmHg 96%

    Day after tomorrow, 29 July, Saturday

    Time Temperature Precipitation Wind Pressure Humidity
    00:00 +9°C° 0 mm 1 mps 629 mmHg 96%
    01:00 +9°C° 0 mm 1 mps 628 mmHg 96%
    02:00 +9°C° 0 mm 1 mps 628 mmHg 96%
    03:00 +9°C° 0 mm 1 mps 628 mmHg 95%
    04:00 +9°C° 0 mm 1 mps 628 mmHg 95%
    05:00 +10°C° 0 mm 1 mps 629 mmHg 93%
    06:00 +12°C° 0 mm 1 mps 630 mmHg 90%
    07:00 +13°C° 0 mm 1 mps 630 mmHg 88%
    08:00 +16°C° 0 mm 1 mps 631 mmHg 78%
    09:00 +19°C° 0 mm 1 mps 632 mmHg 68%
    10:00 +21°C° 0 mm 1 mps 633 mmHg 58%
    11:00 +22°C° 0.1 mm 1 mps 633 mmHg 59%
    12:00 +22°C° 0.1 mm 1 mps 633 mmHg 59%
    13:00 +21°C° 0.1 mm 2 mps 633 mmHg 60%
    14:00 +21°C° 1 mm 2 mps 632 mmHg 63%
    15:00 +20°C° 1 mm 2 mps 632 mmHg 67%
    16:00 +21°C° 1 mm 1 mps 632 mmHg 70%
    17:00 +19°C° 1.6 mm 1 mps 631 mmHg 76%
    18:00 +18°C° 1.6 mm 1 mps 631 mmHg 83%
    19:00 +15°C° 1.6 mm 1 mps 631 mmHg 89%
    20:00 +15°C° 1.7 mm 1 mps 630 mmHg 91%
    21:00 +14°C° 1.7 mm 1 mps 630 mmHg 92%
    22:00 +13°C° 1.7 mm 1 mps 630 mmHg 94%
    23:00 +13°C° 0.6 mm 1 mps 630 mmHg 94%

    30 July, Sunday

    Time Temperature Precipitation Wind Pressure Humidity
    00:00 +13°C° 0.6 mm 1 mps 630 mmHg 94%
    01:00 +12°C° 0.6 mm 1 mps 629 mmHg 94%
    02:00 +12°C° 0.7 mm 1 mps 629 mmHg 94%
    03:00 +12°C° 0.7 mm 1 mps 629 mmHg 94%
    04:00 +12°C° 0.7 mm 1 mps 629 mmHg 94%
    05:00 +13°C° 0.6 mm 1 mps 629 mmHg 92%
    06:00 +14°C° 0.6 mm 1 mps 629 mmHg 91%
    07:00 +15°C° 0.6 mm 1 mps 629 mmHg 89%
    08:00 +18°C° 0.3 mm 1 mps 630 mmHg 78%
    09:00 +20°C° 0.3 mm 1 mps 631 mmHg 67%
    10:00 +23°C° 0.3 mm 1 mps 632 mmHg 56%
    11:00 +23°C° 0.4 mm 1 mps 631 mmHg 56%
    12:00 +23°C° 0.4 mm 1 mps 631 mmHg 56%
    13:00 +23°C° 0.4 mm 2 mps 631 mmHg 55%
    14:00 +23°C° 1.3 mm 1 mps 631 mmHg 62%
    15:00 +22°C° 1.3 mm 1 mps 631 mmHg 68%
    16:00 +21°C° 1.3 mm 1 mps 630 mmHg 75%
    17:00 +20°C° 2.1 mm 1 mps 630 mmHg 81%
    18:00 +18°C° 2.1 mm 1 mps 629 mmHg 87%
    19:00 +15°C° 2.1 mm 1 mps 629 mmHg 94%
    20:00 +14°C° 0.8 mm 1 mps 629 mmHg 94%
    21:00 +14°C° 0.8 mm 1 mps 629 mmHg 94%
    22:00 +13°C° 0.8 mm 1 mps 629 mmHg 95%
    23:00 +13°C° 0.1 mm 1 mps 629 mmHg 94%

    31 July, Monday

    Time Temperature Precipitation Wind Pressure Humidity
    00:00 +12°C° 0.1 mm 1 mps 629 mmHg 94%
    01:00 +12°C° 0.1 mm 1 mps 629 mmHg 94%
    02:00 +12°C° 0 mm 1 mps 628 mmHg 93%
    03:00 +11°C° 0 mm 1 mps 628 mmHg 93%
    04:00 +11°C° 0 mm 1 mps 628 mmHg 92%
    05:00 +12°C° 0 mm 1 mps 629 mmHg 90%
    06:00 +14°C° 0 mm 1 mps 630 mmHg 87%
    07:00 +15°C° 0 mm 1 mps 630 mmHg 85%
    08:00 +19°C° 0 mm 1 mps 631 mmHg 73%
    09:00 +21°C° 0 mm 1 mps 632 mmHg 61%
    10:00 +23°C° 0 mm 1 mps 633 mmHg 49%
    11:00 +24°C° 0 mm 1 mps 633 mmHg 47%
    12:00 +25°C° 0 mm 2 mps 633 mmHg 45%
    13:00 +25°C° 0 mm 2 mps 633 mmHg 43%
    14:00 +25°C° 0.1 mm 2 mps 633 mmHg 47%
    15:00 +25°C° 0.1 mm 2 mps 632 mmHg 51%
    16:00 +24°C° 0.1 mm 2 mps 632 mmHg 54%
    17:00 +23°C° 0.4 mm 2 mps 631 mmHg 63%
    18:00 +20°C° 0.4 mm 2 mps 631 mmHg 72%
    19:00 +19°C° 0.4 mm 1 mps 630 mmHg 81%
    20:00 +17°C° 0.1 mm 2 mps 630 mmHg 83%
    21:00 +16°C° 0.1 mm 2 mps 630 mmHg 86%
    22:00 +15°C° 0.1 mm 2 mps 629 mmHg 88%
    23:00 +14°C° 0 mm 2 mps 629 mmHg 88%

    1 August, Tuesday

    Time Temperature Precipitation Wind Pressure Humidity
    00:00 +14°C° 0 mm 2 mps 629 mmHg 88%
    01:00 +14°C° 0 mm 2 mps 628 mmHg 89%
    02:00 +13°C° 0 mm 2 mps 628 mmHg 89%
    03:00 +13°C° 0 mm 2 mps 628 mmHg 88%
    04:00 +12°C° 0 mm 2 mps 628 mmHg 88%
    05:00 +14°C° 0 mm 2 mps 628 mmHg 85%
    06:00 +15°C° 0 mm 2 mps 629 mmHg 82%
    07:00 +16°C° 0 mm 2 mps 629 mmHg 78%
    08:00 +18°C° 0 mm 2 mps 630 mmHg 68%
    09:00 +22°C° 0 mm 1 mps 631 mmHg 58%
    10:00 +25°C° 0 mm 1 mps 631 mmHg 48%
    11:00 +26°C° 0 mm 2 mps 631 mmHg 45%
    12:00 +26°C° 0 mm 2 mps 631 mmHg 42%
    13:00 +27°C° 0 mm 2 mps 632 mmHg 40%
    14:00 +27°C° 0 mm 2 mps 631 mmHg 42%
    15:00 +27°C° 0 mm 2 mps 630 mmHg 44%
    16:00 +26°C° 0 mm 2 mps 630 mmHg 46%
    17:00 +24°C° 0 mm 2 mps 629 mmHg 56%
    18:00 +21°C° 0 mm 2 mps 629 mmHg 65%
    19:00 +19°C° 0 mm 2 mps 628 mmHg 75%
    20:00 +17°C° 1.3 mm 2 mps 628 mmHg 81%
    21:00 +15°C° 1.3 mm 2 mps 629 mmHg 88%
    22:00 +12°C° 1.3 mm 3 mps 629 mmHg 94%
    23:00 +13°C° 0 mm 2 mps 629 mmHg 95%
    Show more